• In Germany
  • List of Countries
  • For 7 days
  • Water Temperature
  • Satellite Maps
  • Weather Map
  • Weather Widgets
  • user-avatar
    Login

    Hourly Weather Lankaran

    Today, 25 November, Saturday

    Time Temperature Precipitation Wind Pressure Humidity
    00:00 -5°C° 0 mm 4 mps 632 mmHg 62%
    01:00 -5°C° 0 mm 4 mps 632 mmHg 62%
    02:00 -7°C° 0 mm 4 mps 632 mmHg 61%
    03:00 -5°C° 0 mm 4 mps 632 mmHg 57%
    04:00 -5°C° 0 mm 4 mps 633 mmHg 58%
    05:00 -5°C° 0 mm 4 mps 633 mmHg 58%
    06:00 -7°C° 0 mm 5 mps 634 mmHg 58%
    07:00 -5°C° 0 mm 5 mps 634 mmHg 54%
    08:00 -4°C° 0 mm 5 mps 635 mmHg 49%
    09:00 -3°C° 0 mm 6 mps 636 mmHg 44%
    10:00 -3°C° 0 mm 6 mps 636 mmHg 41%
    11:00 -2°C° 0 mm 6 mps 637 mmHg 39%
    12:00 -1°C° 0 mm 6 mps 637 mmHg 36%
    13:00 -1°C° 0 mm 5 mps 637 mmHg 36%
    14:00 -1°C° 0 mm 5 mps 638 mmHg 37%
    15:00 -1°C° 0 mm 4 mps 638 mmHg 37%
    16:00 -2°C° 0 mm 4 mps 638 mmHg 43%
    17:00 -4°C° 0 mm 3 mps 638 mmHg 49%
    18:00 -4°C° 0 mm 2 mps 638 mmHg 54%
    19:00 -4°C° 0 mm 2 mps 638 mmHg 55%
    20:00 -4°C° 0 mm 2 mps 638 mmHg 57%
    21:00 -5°C° 0 mm 2 mps 638 mmHg 58%
    22:00 -5°C° 0 mm 2 mps 638 mmHg 60%
    23:00 -3°C° 0 mm 1 mps 638 mmHg 62%

    Tomorrow, 26 November, Sunday

    Time Temperature Precipitation Wind Pressure Humidity
    00:00 -3°C° 0 mm 1 mps 638 mmHg 64%
    01:00 -5°C° 0 mm 2 mps 638 mmHg 63%
    02:00 -5°C° 0 mm 2 mps 637 mmHg 61%
    03:00 -5°C° 0 mm 2 mps 637 mmHg 60%
    04:00 -5°C° 0 mm 2 mps 637 mmHg 57%
    05:00 -5°C° 0 mm 2 mps 637 mmHg 53%
    06:00 -5°C° 0 mm 2 mps 637 mmHg 50%
    07:00 -3°C° 0 mm 2 mps 637 mmHg 46%
    08:00 -2°C° 0 mm 2 mps 637 mmHg 42%
    09:00 0°C° 0 mm 3 mps 638 mmHg 37%
    10:00 +1°C° 0 mm 3 mps 637 mmHg 36%
    11:00 +2°C° 0 mm 3 mps 637 mmHg 35%
    12:00 +3°C° 0 mm 3 mps 637 mmHg 34%
    13:00 +3°C° 0 mm 3 mps 636 mmHg 37%
    14:00 +3°C° 0 mm 3 mps 636 mmHg 40%
    15:00 +3°C° 0 mm 3 mps 635 mmHg 43%
    16:00 +2°C° 0 mm 2 mps 635 mmHg 50%
    17:00 +1°C° 0 mm 2 mps 635 mmHg 56%
    18:00 -1°C° 0 mm 2 mps 635 mmHg 62%
    19:00 -1°C° 0 mm 2 mps 635 mmHg 59%
    20:00 -2°C° 0 mm 2 mps 635 mmHg 56%
    21:00 -2°C° 0 mm 2 mps 634 mmHg 53%
    22:00 -2°C° 0 mm 2 mps 634 mmHg 50%
    23:00 -2°C° 0 mm 3 mps 634 mmHg 48%

    Day after tomorrow, 27 November, Monday

    Time Temperature Precipitation Wind Pressure Humidity
    00:00 -2°C° 0 mm 3 mps 634 mmHg 45%
    01:00 -2°C° 0 mm 3 mps 634 mmHg 44%
    02:00 -2°C° 0 mm 3 mps 634 mmHg 43%
    03:00 -4°C° 0 mm 3 mps 633 mmHg 43%
    04:00 -4°C° 0 mm 3 mps 633 mmHg 43%
    05:00 -4°C° 0 mm 3 mps 633 mmHg 44%
    06:00 -4°C° 0 mm 3 mps 633 mmHg 45%
    07:00 -1°C° 0 mm 3 mps 634 mmHg 41%
    08:00 0°C° 0 mm 3 mps 635 mmHg 38%
    09:00 +2°C° 0 mm 3 mps 635 mmHg 34%
    10:00 +3°C° 0 mm 3 mps 635 mmHg 34%
    11:00 +4°C° 0 mm 3 mps 635 mmHg 33%
    12:00 +5°C° 0 mm 4 mps 635 mmHg 33%
    13:00 +5°C° 0 mm 4 mps 635 mmHg 35%
    14:00 +4°C° 0 mm 4 mps 634 mmHg 38%
    15:00 +4°C° 0 mm 3 mps 634 mmHg 40%
    16:00 +2°C° 0 mm 3 mps 634 mmHg 49%
    17:00 0°C° 0 mm 3 mps 634 mmHg 58%
    18:00 -1°C° 0 mm 3 mps 634 mmHg 67%
    19:00 -2°C° 0 mm 3 mps 634 mmHg 71%
    20:00 -2°C° 0 mm 3 mps 634 mmHg 75%
    21:00 -2°C° 0 mm 3 mps 635 mmHg 79%
    22:00 -2°C° 0.1 mm 3 mps 635 mmHg 81%
    23:00 -2°C° 0.1 mm 3 mps 635 mmHg 82%

    28 November, Tuesday

    Time Temperature Precipitation Wind Pressure Humidity
    00:00 -2°C° 0.1 mm 3 mps 635 mmHg 84%
    01:00 -2°C° 0.1 mm 3 mps 635 mmHg 85%
    02:00 -2°C° 0.1 mm 3 mps 635 mmHg 85%
    03:00 -1°C° 0.1 mm 2 mps 635 mmHg 86%
    04:00 -1°C° 0.1 mm 2 mps 635 mmHg 86%
    05:00 -1°C° 0.1 mm 2 mps 635 mmHg 86%
    06:00 -1°C° 0.1 mm 2 mps 635 mmHg 87%
    07:00 -1°C° 0.1 mm 3 mps 636 mmHg 84%
    08:00 0°C° 0.1 mm 3 mps 636 mmHg 81%
    09:00 +1°C° 0.1 mm 3 mps 637 mmHg 78%
    10:00 +2°C° 0.1 mm 3 mps 637 mmHg 74%
    11:00 +2°C° 0.1 mm 3 mps 637 mmHg 71%
    12:00 +3°C° 0.1 mm 3 mps 636 mmHg 68%
    13:00 +3°C° 0 mm 3 mps 636 mmHg 68%
    14:00 +3°C° 0 mm 3 mps 636 mmHg 69%
    15:00 +3°C° 0 mm 3 mps 636 mmHg 70%
    16:00 +2°C° 0 mm 3 mps 636 mmHg 76%
    17:00 +2°C° 0 mm 2 mps 636 mmHg 81%
    18:00 +1°C° 0 mm 2 mps 636 mmHg 87%
    19:00 +1°C° 0.1 mm 2 mps 636 mmHg 88%
    20:00 +1°C° 0.1 mm 2 mps 636 mmHg 89%
    21:00 +1°C° 0.1 mm 2 mps 637 mmHg 90%
    22:00 +1°C° 0.1 mm 2 mps 636 mmHg 90%
    23:00 +2°C° 0.1 mm 1 mps 636 mmHg 90%

    29 November, Wednesday

    Time Temperature Precipitation Wind Pressure Humidity
    00:00 +2°C° 0.1 mm 1 mps 636 mmHg 90%
    01:00 +1°C° 0 mm 1 mps 636 mmHg 89%
    02:00 +1°C° 0 mm 1 mps 636 mmHg 89%
    03:00 +1°C° 0 mm 1 mps 636 mmHg 88%
    04:00 0°C° 0 mm 1 mps 636 mmHg 87%
    05:00 0°C° 0 mm 1 mps 636 mmHg 87%
    06:00 0°C° 0 mm 1 mps 636 mmHg 86%
    07:00 -1°C° 0 mm 2 mps 636 mmHg 78%
    08:00 +2°C° 0 mm 2 mps 637 mmHg 71%
    09:00 +3°C° 0 mm 2 mps 637 mmHg 63%
    10:00 +3°C° 0 mm 3 mps 637 mmHg 59%
    11:00 +4°C° 0 mm 3 mps 637 mmHg 54%
    12:00 +5°C° 0 mm 3 mps 637 mmHg 50%
    13:00 +5°C° 0 mm 3 mps 636 mmHg 53%
    14:00 +5°C° 0 mm 3 mps 636 mmHg 55%
    15:00 +5°C° 0 mm 3 mps 636 mmHg 58%
    16:00 +5°C° 0 mm 2 mps 635 mmHg 64%
    17:00 +4°C° 0 mm 2 mps 635 mmHg 71%
    18:00 +3°C° 0 mm 2 mps 635 mmHg 77%
    19:00 +3°C° 0 mm 2 mps 635 mmHg 77%
    20:00 +2°C° 0 mm 2 mps 635 mmHg 77%
    21:00 +2°C° 0 mm 2 mps 634 mmHg 76%
    22:00 +2°C° 0 mm 2 mps 634 mmHg 74%
    23:00 +1°C° 0 mm 2 mps 634 mmHg 72%

    30 November, Thursday

    Time Temperature Precipitation Wind Pressure Humidity
    00:00 +2°C° 0 mm 1 mps 634 mmHg 69%
    01:00 +1°C° 0 mm 2 mps 633 mmHg 68%
    02:00 +1°C° 0 mm 2 mps 633 mmHg 66%
    03:00 +1°C° 0 mm 2 mps 633 mmHg 65%
    04:00 +1°C° 0 mm 2 mps 633 mmHg 65%
    05:00 +1°C° 0 mm 2 mps 633 mmHg 65%
    06:00 +1°C° 0 mm 2 mps 633 mmHg 64%
    07:00 +2°C° 0 mm 2 mps 634 mmHg 59%
    08:00 +3°C° 0 mm 3 mps 634 mmHg 54%
    09:00 +4°C° 0 mm 3 mps 635 mmHg 48%
    10:00 +5°C° 0 mm 3 mps 635 mmHg 48%
    11:00 +5°C° 0 mm 3 mps 635 mmHg 48%
    12:00 +7°C° 0 mm 3 mps 635 mmHg 48%
    13:00 +5°C° 0 mm 3 mps 635 mmHg 51%
    14:00 +5°C° 0 mm 3 mps 635 mmHg 55%
    15:00 +5°C° 0 mm 2 mps 635 mmHg 59%
    16:00 +5°C° 0.1 mm 2 mps 635 mmHg 66%
    17:00 +4°C° 0.1 mm 2 mps 635 mmHg 72%
    18:00 +3°C° 0.1 mm 2 mps 636 mmHg 79%
    19:00 +3°C° 0.2 mm 2 mps 636 mmHg 80%
    20:00 +2°C° 0.2 mm 2 mps 636 mmHg 81%
    21:00 +2°C° 0.2 mm 2 mps 636 mmHg 83%
    22:00 +2°C° 0.3 mm 2 mps 636 mmHg 83%
    23:00 +1°C° 0.3 mm 3 mps 636 mmHg 84%
    Show more